Regional Weather Roundup
Issued by NWS Kansas City/Pleasant Hill, MO

Home | Current Version | Previous Version | Graphics & Text | Print | Product List | Glossary Off
Versions: 1 2 3 4 5 6 7 8 9 10 11 12 13 14 15 16 17 18 19 20 21 22 23 24 25 26 27 28 29 30 31 32 33 34 35 36 37 38 39 40 41 42 43 44 45 46 47 48 49 50

000
ASUS43 KEAX 231610
RWREAX

WEATHER ROUNDUP FOR EASTERN KANSAS AND NORTHWEST MISSOURI
NATIONAL WEATHER SERVICE KANSAS CITY/PLEASANT HILL MO
1000 AM CST THU FEB 23 2017

KSZ040-057-103>105-MOZ028-029-037-043-231700-
...KANSAS CITY METROPOLITAN AREA...

CITY           SKY/WX    TMP DP  RH WIND       PRES   REMARKS
K.C. INTL      CLOUDY    49  39  68 E21       29.65F
K.C. DOWNTOWN  CLOUDY    52  40  63 E18G25    29.64F
LEES SUMMIT    CLOUDY    50  41  71 E20G26    29.65F
OLATHE - IXD   CLOUDY    51  41  68 E14G23    29.64F
OLATHE - OJC   PTSUNNY   50  42  74 E18G24    29.63F
LAWRENCE       CLOUDY    51  39  63 NE14G24   29.65F

$$

MOZ001>008-011>017-020>025-030>033-038>040-044>046-053-054-231700-
...NORTHERN AND CENTRAL MISSOURI...

CITY           SKY/WX    TMP DP  RH WIND       PRES   REMARKS
ST. JOSEPH     CLOUDY    43  40  89 E13G28    29.67F
WARRENSBURG    CLOUDY    54  43  66 NE15      29.64F
WHITEMAN AFB   PTSUNNY   54  51  91 NE7       29.69R
CLINTON        PTSUNNY   57  55  94 NE7       29.66R
SEDALIA        CLOUDY    55  49  80 E10       29.66F
WARSAW         NOT AVBL
CHILLICOTHE      N/A     44  39  82 NE14G20   29.75S
KIRKSVILLE     CLOUDY    42  40  92 NE15      29.76F WCI  34

$$

MOZ041-047>049-056>058-063>065-088>090-097-231700-
...EASTERN AND SOUTHERN MISSOURI...

CITY           SKY/WX    TMP DP  RH WIND       PRES   REMARKS
ST. LOUIS INTL MOSUNNY   64  54  69 CALM      29.73F
SPIRIT OF STL  SUNNY     62  56  80 NE5       29.71F
COLUMBIA       CLOUDY    55  52  89 E9        29.69F
JEFFERSON CITY CLOUDY    51  51 100 E7        29.69F
ROLLA          CLOUDY    55  55 100 SE6       29.69F
OSAGE BEACH    CLOUDY    59  54  83 SE9       29.67F
SPRINGFIELD    PTSUNNY   58  55  90 SE16      29.63F
BRANSON        MOSUNNY   55  55 100 E8        29.68F FOG
JOPLIN         MOSUNNY   68  53  58 S15       29.57F
WEST PLAINS    CLOUDY    56  55  97 S8        29.74F

$$

IAZ060-094-KSZ022-034>040-054-083-096-NEZ052-066-093-231700-
...KANSAS...SOUTHEAST NEBRASKA AND IOWA...

CITY           SKY/WX    TMP DP  RH WIND       PRES   REMARKS
TOPEKA         CLOUDY    52  40  63 NE14      29.64F
MANHATTAN      LGT RAIN  52  37  56 E21G29    29.57F
EMPORIA        CLOUDY    55  43  63 NE15G23   29.59F
CHANUTE        PTSUNNY   64  53  67 SE12      29.56F
WICHITA        CLOUDY    56  43  61 E15       29.51F
OMAHA          CLOUDY    38  32  79 NE13G22   29.76F WCI  30
LINCOLN        CLOUDY    37  34  89 NE21      29.72F WCI  26
FALLS CITY     CLOUDY    42  38  85 E18G24    29.66F WCI  34
LAMONI         LGT RAIN  39  38  96 NE17      29.74F WCI  30
DES MOINES     CLOUDY    42  36  79 E12       29.81F

$$




USA.gov is the U.S. government's official web portal to all federal, state and local government web resources and services.